Location: Darlington Observatory
(36.4817°N, 105.8156°W)
Time: 03:43:54
(UTC-06:00)

NOSS 3-3 (A) - Visible Passes

Search period start: 31 March 2015 00:00
Search period end: 10 April 2015 00:00
Orbit: 958 x 1255 km, 63.4° (Epoch: 28 March)

Date Brightness Start Highest point End Pass type
(mag) Time Alt. Az. Time Alt. Az. Time Alt. Az.
31 Mar 7.1 02:01:31 10° NNE 02:03:06 11° NNE 02:05:00 10° NE visible
31 Mar 5.6 03:49:30 10° NNW 03:56:21 40° NE 04:03:35 10° ESE visible
31 Mar 4.7 05:40:25 10° NW 05:47:30 45° WSW 05:54:47 10° S visible
31 Mar 6.5 21:23:18 10° W 21:28:05 20° NW 21:32:53 10° N visible
01 Apr 6.1 03:05:14 10° NNW 03:11:17 28° NE 03:17:44 10° E visible
01 Apr 4.3 04:55:29 10° NW 05:02:56 71° WSW 05:10:42 10° SSE visible
01 Apr 6.0 20:37:18 10° WSW 20:42:54 30° NW 20:48:43 10° NNE visible
02 Apr 6.5 02:21:07 10° N 02:26:01 19° NE 02:31:20 10° E visible
02 Apr 4.5 04:10:48 10° NNW 04:18:16 77° ENE 04:26:06 10° SE visible
02 Apr 5.5 06:03:21 10° WNW 06:08:47 21° WSW 06:14:00 10° SSW visible
02 Apr 5.3 19:51:50 10° SW 19:57:56 47° NW 20:04:22 10° NNE visible
02 Apr 6.9 21:48:46 10° NW 21:50:54 11° NNW 21:52:47 10° N visible
03 Apr 6.8 01:37:21 10° N 01:40:36 13° NNE 01:44:12 10° ENE visible
03 Apr 5.1 03:26:16 10° NNW 03:33:28 51° NE 03:41:01 10° SE visible
03 Apr 5.0 05:17:41 10° NW 05:24:21 34° WSW 05:31:04 10° S visible
03 Apr 6.7 21:01:24 10° WNW 21:05:26 16° NNW 21:09:23 10° N visible
04 Apr 5.7 02:41:55 10° NNW 02:48:30 35° NE 02:55:28 10° ESE visible
04 Apr 4.5 04:32:33 10° NW 04:39:50 54° WSW 04:47:21 10° S visible
04 Apr 6.4 20:15:01 10° W 20:20:08 24° NW 20:25:23 10° N visible
05 Apr 6.2 01:57:41 10° N 02:03:21 24° NE 02:07:11 17° E visible
05 Apr 4.4 03:47:44 10° NNW 04:00:11 25° SSE 04:03:03 10° SSE visible
05 Apr 6.0 05:48:10 12° SW 05:48:10 12° SW 05:49:07 10° SW visible
06 Apr 6.6 01:13:41 10° N 01:18:02 17° NE 01:20:52 14° ENE visible
06 Apr 5.1 03:03:07 10° NNW 03:08:10 46° N 03:08:10 46° N visible
06 Apr 6.3 04:55:09 10° WNW 05:09:20 - S 04:55:29 11° WNW visible
06 Apr 6.8 20:39:49 10° WNW 20:42:50 13° NNW 20:45:42 10° N visible
07 Apr 6.8 00:30:12 10° N 00:32:32 12° NNE 00:35:13 10° NE visible
07 Apr 5.6 02:18:39 10° NNW 02:23:34 36° NNE 02:23:34 36° NNE visible
07 Apr 6.2 04:09:44 10° NW 04:10:55 15° NW 04:10:55 15° NW visible
07 Apr 6.6 19:52:56 10° W 19:57:27 19° NW 20:01:58 10° N visible
08 Apr 5.9 01:34:20 10° NNW 01:39:24 29° NNE 01:39:24 29° NNE visible
08 Apr 6.0 03:24:44 10° NW 03:26:47 20° NW 03:26:47 20° NW visible
09 Apr 6.3 00:50:11 10° N 00:55:24 21° NE 00:55:27 21° NE visible
09 Apr 5.9 02:40:01 10° NNW 02:42:51 26° NNW 02:42:51 26° NNW visible
09 Apr 7.0 20:19:05 10° NW 20:20:19 10° NNW 20:21:18 10° NNW visible
